This is the latest recevied weather packets stored in our database for station/object N4TLC. If no packets are shown the sender has not sent any weather packets the latest 10 day(s).
| Time | Temp. | Humidity | Pressure | Rain* | Wind** | Luminosity | Snow |
|---|---|---|---|---|---|---|---|
| 1777940222 | 22.22° C | 33% | 1015.7 hPa | 0 mm | - | 1 W/m² | - |
| 1777939919 | 22.22° C | 32% | 1015.5 hPa | 0 mm | - | 2 W/m² | - |
| 1777939616 | 22.78° C | 32% | 1015.6 hPa | 0 mm | - | 4 W/m² | - |
| 1777939314 | 22.78° C | 31% | 1015.6 hPa | 0 mm | - | 6 W/m² | - |
| 1777939010 | 22.78° C | 31% | 1015.5 hPa | 0 mm | - | 8 W/m² | - |
| 1777938706 | 23.33° C | 32% | 1015.4 hPa | 0 mm | - | 11 W/m² | - |
| 1777938404 | 23.33° C | 31% | 1015.4 hPa | 0 mm | - | 13 W/m² | - |
| 1777938101 | 23.89° C | 31% | 1015.4 hPa | 0 mm | - | 16 W/m² | - |
| 1777937797 | 24.44° C | 31% | 1015.1 hPa | 0 mm | - | 20 W/m² | - |
| 1777937493 | 25° C | 30% | 1015.2 hPa | 0 mm | - | 26 W/m² | - |
| 1777937191 | 25° C | 29% | 1015.1 hPa | 0 mm | - | 43 W/m² | - |
| 1777936888 | 25° C | 29% | 1015.2 hPa | 0 mm | - | 52 W/m² | - |
| 1777936584 | 25.56° C | 29% | 1015.4 hPa | 0 mm | - | 64 W/m² | - |
| 1777936281 | 25.56° C | 29% | 1015.2 hPa | 0 mm | - | 76 W/m² | - |
| 1777935976 | 25.56° C | 29% | 1015.4 hPa | 0 mm | - | 88 W/m² | - |
| 1777935676 | 26.11° C | 28% | 1015 hPa | 0 mm | - | 105 W/m² | - |
| 1777935373 | 26.11° C | 28% | 1015 hPa | 0 mm | - | 124 W/m² | - |
| 1777935070 | 26.11° C | 28% | 1015.1 hPa | 0 mm | - | 142 W/m² | - |
| 1777934766 | 26.67° C | 27% | 1015.2 hPa | 0 mm | - | 160 W/m² | - |
| 1777934463 | 26.67° C | 27% | 1015.3 hPa | 0 mm | - | 175 W/m² | - |
| 1777934160 | 26.67° C | 28% | 1015.3 hPa | 0 mm | - | 191 W/m² | - |
| 1777933856 | 26.67° C | 27% | 1015.3 hPa | 0 mm | - | 209 W/m² | - |
| 1777933553 | 26.67° C | 27% | 1015.2 hPa | 0 mm | - | 227 W/m² | - |
| 1777933250 | 26.67° C | 27% | 1015.3 hPa | 0 mm | - | 246 W/m² | - |
| 1777932948 | 26.11° C | 28% | 1015.5 hPa | 0 mm | - | 263 W/m² | - |
* Rain latest hour (hover to see other rain measurements)
** Current wind speed in m/s (hover to see current wind gust speed)